Regional Weather Roundup
Issued by NWS

Home | Current Version | Previous Version | Text Only | Print | Product List | Glossary On
Versions: 1 2 3 4 5 6 7 8 9 10 11 12 13 14 15 16 17 18 19 20 21 22 23 24 25 26 27 28 29 30 31 32 33 34 35 36 37 38 39 40 41 42 43 44 45 46 47 48 49 50
000
ASUS42 KTBW 011210
RWRFL
FLORIDA REGIONAL WEATHER ROUNDUP
NATIONAL WEATHER SERVICE TAMPA BAY RUSKIN FL
800 AM EDT FRI AUG 01 2014

NOTE: "FAIR" INDICATES FEW OR NO CLOUDS BELOW 12,000 FEET WITH NO
SIGNIFICANT WEATHER AND/OR OBSTRUCTIONS TO VISIBILITY.


FLZ001>010-012>015-112-114-115-011300-
PANHANDLE FLORIDA

CITY           SKY/WX    TMP DP  RH WIND       PRES   REMARKS
PENSACOLA      CLOUDY    71  66  84 CALM      29.98R
PENSACOLA NAS  CLOUDY    71  67  87 N3        29.98R
MILTON NAS     PTSUNNY   70  64  81 N3        29.99R
CRESTVIEW      PTSUNNY   68  66  93 CALM      30.00S FOG
DUKE FIELD     FAIR      67  67  99 N1        29.98S
VALPARAISO     PTSUNNY   71  65  83 N3        29.98R
MARY ESTHER    MOSUNNY   70  63  78 N6        29.97R
TRI COUNTY     FAIR      67  66  97 CALM      29.99S
PANAMA CITY    FAIR      70  66  87 CALM      29.97R
TYNDALL AFB    SUNNY     70  69  97 CALM      29.99R
APALACHICOLA   SUNNY     67  67 100 CALM      29.98R

STATION/POSITION SKY/WX   TEMP    WIND        PRES    WAVE   SWELL
                          AIR SEA DIR/SP/G            HT/PER HT/PER
                          (F)     (DEG/KT/KT) (MB)    (FT/S) (FT/S)
30.1N   87.6W              79 83   50/  8/ 10 1015.0R   1
29.2N   88.2W              81 84   CALM  /  2 1015.3
28.8N   86.0W              81 85  240/  4/  4 1015.4R   1
PANAMA CITY BEAC           74 80   20/  2/  2 1015.0R
CAPE SAN BLAS    NOT AVBL
TOWER C                    80     250/  6/  7 1015.3R
28.5N   84.5W              82 85  280/  4/  6 1015.3R   1

$$
FLZ011-016>038-118-127-128-134-139-239-011300-
NORTH FLORIDA

CITY           SKY/WX    TMP DP  RH WIND       PRES   REMARKS
MARIANNA       MOSUNNY   69  68  96 CALM      29.97S
TALLAHASSEE    PTSUNNY   70  65  84 CALM      29.98R
PERRY          PTSUNNY   68  68 100 CALM      29.98R
CROSS CITY       N/A     72  69  90 CALM      29.98R
GAINESVILLE    FOG       76  76 100 CALM      29.97R VSB 1/4
MAYPORT NAS    PTSUNNY   80  74  81 SW7       29.97R
JACKSONVILLE   PTSUNNY   75  75 100 CALM      29.97R
JAX NAS        PTSUNNY   82  74  76 SW6       29.98R
JAX CRAIG      SUNNY     78  75  90 CALM      29.97
JAX CECIL      SUNNY     73  73 100 CALM      29.97R FOG
FERNANDINA BEA FAIR      81  77  89 CALM      29.96R
ST AUGUSTINE   PTSUNNY   80  75  84 SW5       29.98

STATION/POSITION SKY/WX   TEMP    WIND        PRES    WAVE   SWELL
                          AIR SEA DIR/SP/G            HT/PER HT/PER
                          (F)     (DEG/KT/KT) (MB)    (FT/S) (FT/S)
SHELL POINT                74     280/  1/  3   N/A
KEATON BEACH               72      70/  3/  3 1015.2R
CEDAR KEY                  77      20/  2/  3 1015.4R
FERNANDINA                 80 87  240/  3/  4 1014.2F
30.7N   81.3W                 85                N/A     3/ 4
MAYPORT                    80 86  240/  7/  8   N/A
31.4N   80.9W              83 85  160/  6/  8 1014.9R   3/ 4   2/ 4
ST AUGUSTINE               78     220/  7/  7 1015.7R

$$
FLZ040-043>046-052-053-057-058-063-144-011300-
INTERIOR CENTRAL FLORIDA

CITY           SKY/WX    TMP DP  RH WIND       PRES   REMARKS
OCALA          PTSUNNY   72  61  68 CALM      29.99R
LEESBURG       CLOUDY    78  71  79 CALM      29.99R
SANFORD        SUNNY     79  74  84 S6        29.98R
ORLANDO EXEC   SUNNY     79  73  82 CALM      29.98R
ORLANDO INTL   MOSUNNY   78  75  90 S3        29.99
KISSIMMEE      MOSUNNY   79  75  89 CALM      29.99R
WINTER HAVEN   SUNNY     78  73  84 CALM      30.00R
LAKELAND       SUNNY     75  72  88 MISG      29.99R
BARTOW         SUNNY     75  75 100 CALM      30.00R
OKEECHOBEE       N/A     75  75 100 MISG      29.99R

$$
FLZ041-047-054-059-064-141-147-011300-
EAST CENTRAL FLORIDA

CITY           SKY/WX    TMP DP  RH WIND       PRES   REMARKS
ORMOND BEACH   SUNNY     77  75  94 S6        29.99R
DAYTONA BEACH  MOSUNNY   78  76  93 S6        29.98
DELAND         SUNNY     77  75  94 S3        29.99R
NEW SMYRNA BEA SUNNY     79  75  89 CALM      29.99R
JFK SPACE CTR  SUNNY     79  79 100 S7        29.98R
CAPE CANAVERAL SUNNY     80  76  86 S6        29.97S
PATRICK AFB    SUNNY     80  76  85 SW6       29.98S
MELBOURNE      SUNNY     79  75  87 S3        29.98R
VERO BEACH     SUNNY     77  75  93 S3        29.98R
FT PIERCE      SUNNY     77  74  90 CALM      29.98R
STUART         MOSUNNY   77  75  94 CALM      29.99R

STATION/POSITION SKY/WX   TEMP    WIND        PRES    WAVE   SWELL
                          AIR SEA DIR/SP/G            HT/PER HT/PER
                          (F)     (DEG/KT/KT) (MB)    (FT/S) (FT/S)
28.5N   80.2W              82 82  190/ 10/ 12 1015.2R
28.9N   78.5W              83 84  150/ 12/ 14 1015.9R   3/ 5   2/ 8
TRIDENT PIER               81 85  190/  7/  9 1014.7S
28.4N   80.5W                 84                N/A     2/ 4
27.6N   80.2W                 82                N/A     2/ 3

$$
FLZ050-056-061-142-242-148-248-149-249-151-251-155-255-
160-260-011300-
WEST CENTRAL FLORIDA

CITY           SKY/WX    TMP DP  RH WIND       PRES   REMARKS
CRYSTAL RIVER  PTSUNNY   72  66  83 CALM      29.98S
INVERNESS      CLOUDY    72  66  83 CALM      29.99R
BROOKSVILLE    MOSUNNY   74  71  91 CALM      30.00R
ZEPHYRHILLS    FAIR      70  70 100 CALM      30.00S
CLEARWATER     SUNNY     78  73  84 CALM      29.99R
TAMPA INTL     MOSUNNY   81  69  67 CALM      29.99R
TAMPA EXEC     SUNNY     77  73  88 CALM      30.00R FOG
MACDILL AFB    SUNNY     76  74  93 E5        29.99R
ST PETERSBURG  SUNNY     82  70  66 CALM      29.97R
SARASOTA       SUNNY     79  71  76 E3        29.97R
VENICE           N/A     79  70  73 NE7       29.99S THUNDER

STATION/POSITION SKY/WX   TEMP    WIND        PRES    WAVE   SWELL
                          AIR SEA DIR/SP/G            HT/PER HT/PER
                          (F)     (DEG/KT/KT) (MB)    (FT/S) (FT/S)
CEDAR KEY                  77      20/  2/  3 1015.4R
28.5N   84.5W              82 85  280/  4/  6 1015.3R   1
27.3N   84.3W                 86                N/A     1
CLEARWATER BEACH           83 87  130/  3/  3 1015.0R
MIDDLE TAMPA BAY           83     140/  4/  5 1015.4R
VENICE                     80 89   40/  5/  6 1014.8R

$$
FLZ066-069-070-075>078-162-262-165-265-011300-
SOUTHWEST FLORIDA AND KEYS

CITY           SKY/WX    TMP DP  RH WIND       PRES   REMARKS
PUNTA GORDA    SUNNY     78  75  90 CALM      29.99R
FT MYERS       MOSUNNY   78  75  90 E3        29.97R
SOUTHWEST INTL MOSUNNY   78  74  87 NE3       29.97R
NAPLES         PTSUNNY   80  74  81 E3        29.96R
MARCO ISLAND   SUNNY     77  73  88 E6        29.96S
MARATHON       MOSUNNY   86  75  69 VRB5      29.96R HX  95
KEY WEST NAS   MOSUNNY   86  74  67 S7        29.95S
KEY WEST INTL  MOSUNNY   86  74  67 SE8       29.96R

STATION/POSITION SKY/WX   TEMP    WIND        PRES    WAVE   SWELL
                          AIR SEA DIR/SP/G            HT/PER HT/PER
                          (F)     (DEG/KT/KT) (MB)    (FT/S) (FT/S)
VENICE                     80 89   40/  5/  6 1014.8R
NAPLES                     80 92  100/  3/  6 1015.1R
DRY TORTUGAS               86     170/  8/ 10 1014.3R
NW FL BAY                  87     160/  9/ 12 1014.1R
SAND KEY                   85     140/  8/ 10 1014.3R
SOMBRERO KEY               86     160/ 10/ 11 1015.2R
LONG KEY                   85 89  130/  9/ 10 1014.9R
MOLASSES REEF              85 87  100/  7/  8 1014.7R

$$
FLZ067-068-071>074-168-172>174-011300-
SOUTHEAST FLORIDA

CITY           SKY/WX    TMP DP  RH WIND       PRES   REMARKS
W PALM BEACH   PTSUNNY   80  76  87 CALM      29.97R
FT LAUDER-EXEC SUNNY     82  79  90 CALM      29.97R
FT LAUDERDALE  MOSUNNY   85  75  72 SE3       29.96R
POMPANO BEACH  MOSUNNY  N/A N/A N/A MISG      29.97R
PEMBROKE PINES SUNNY     82  78  88 CALM      29.98R
OPA LOCKA      SUNNY     81  76  84 CALM      29.97R
MIAMI          MOSUNNY   82  75  79 VRB5      29.97R
WEST KENDALL   MOSUNNY   81  75  82 CALM      29.97R
HOMESTEAD      SUNNY     79  75  89 CALM      29.97R

STATION/POSITION SKY/WX   TEMP    WIND        PRES    WAVE   SWELL
                          AIR SEA DIR/SP/G            HT/PER HT/PER
                          (F)     (DEG/KT/KT) (MB)    (FT/S) (FT/S)
PORT EVERGLADES            84     140/  9/ 12 1014.7
VIRGINIA KEY               85 88  150/  7/  9   N/A
LAKE WORTH                 84 82  150/  9/ 11 1014.7R
FOWEY ROCKS                85 85  130/  9/ 10 1015.0R
SETTLEMENT POINT           83     140/  6/  7 1016.0R

$$



USA.gov is the U.S. government's official web portal to all federal, state and local government web resources and services.